カタログに戻る

KUIPER-00546

運用中通信LEO
NORAD 69614·PAYLOAD·🇺🇸 United States

打ち上げ Jun 17, 2026 から Guiana Space Centre

Loading…

次のパス (今後24時間)

TLE

最新Source: CelesTrak SupGP

元期: Sep 14, 2026, 21:54 UTC

1 69614C 26140Y   26257.91251157 -.00739460  00000+0 -78109-1 0  2575
2 69614  51.8974 329.1032 0020137 109.6159 171.5508 14.89351016    12

AllMySatでKUIPER-00546をリアルタイム追跡

Download on the App Store